GW3170 Weather Reports


Display with metric or nautical units.
time (UTC)temp
F
wind
direction
speed
MPH
gust
MPH
rain 1hr
in
rain 24hr
in
rain mn
in
humidity
%
barometer
mb
20260509222557 64 137 2.0 7.0 0.00 0.00 0.00 66 1004.3
20260509222058 64 229 1.0 8.0 0.00 0.00 0.00 66 1004.5
20260509221559 63 142 3.0 8.0 0.00 0.00 0.00 67 1004.6
20260509221057 64 130 3.0 10.0 0.00 0.00 0.00 65 1004.5
20260509220552 64 143 2.0 10.0 0.00 0.00 0.00 65 1004.4
20260509220056 64 197 2.0 8.0 0.00 0.00 0.00 65 1004.5
20260509215553 64 200 3.0 8.0 0.00 0.00 0.00 66 1004.5
20260509215056 64 131 2.0 10.0 0.00 0.00 0.00 67 1004.6
20260509214556 64 184 2.0 10.0 0.00 0.00 0.00 65 1004.6
20260509214055 64 224 4.0 9.0 0.00 0.00 0.00 66 1004.7
20260509213555 63 229 3.0 11.0 0.00 0.00 0.00 67 1004.6
20260509213055 63 134 3.0 11.0 0.00 0.00 0.00 66 1004.6
20260509212553 64 252 4.0 11.0 0.00 0.00 0.00 66 1004.7
20260509212055 64 213 2.0 11.0 0.00 0.00 0.00 65 1004.7
20260509211601 65 133 5.0 11.0 0.00 0.00 0.00 64 1004.7
20260509211056 65 219 2.0 11.0 0.00 0.00 0.00 65 1004.7
20260509210557 65 237 4.0 10.0 0.00 0.00 0.00 63 1004.7
20260509210109 65 231 4.0 10.0 0.00 0.00 0.00 63 1004.6
20260509205558 65 103 3.0 11.0 0.00 0.00 0.00 63 1004.7
20260509205055 65 239 3.0 11.0 0.00 0.00 0.00 64 1004.6
20260509204554 65 199 3.0 12.0 0.00 0.00 0.00 65 1004.8
20260509204056 65 144 6.0 12.0 0.00 0.00 0.00 63 1004.8
20260509203559 65 65 4.0 11.0 0.00 0.00 0.00 63 1004.7
20260509203056 65 227 3.0 11.0 0.00 0.00 0.00 65 1004.7
20260509202559 64 70 3.0 11.0 0.00 0.00 0.00 65 1004.9
20260509202055 64 211 3.0 11.0 0.00 0.00 0.00 64 1004.9
20260509201559 64 79 2.0 12.0 0.00 0.00 0.00 65 1004.9
20260509201052 64 136 3.0 12.0 0.00 0.00 0.00 65 1004.9
20260509200552 64 225 3.0 8.0 0.00 0.00 0.00 66 1004.8
20260509200104 63 109 3.0 8.0 0.00 0.00 0.00 66 1004.9
20260509195557 63 124 2.0 9.0 0.00 0.00 0.00 68 1005.0
20260509195059 63 205 3.0 9.0 0.00 0.00 0.00 67 1005.1
20260509194558 63 144 4.0 12.0 0.00 0.00 0.00 66 1005.1
20260509194054 63 117 3.0 12.0 0.00 0.00 0.00 66 1005.3
20260509193553 63 224 4.0 12.0 0.00 0.00 0.00 66 1005.3
20260509193057 63 240 4.0 9.0 0.00 0.00 0.00 68 1005.4
20260509192556 63 248 3.0 8.0 0.00 0.00 0.00 67 1005.3
20260509192052 63 203 2.0 7.0 0.00 0.00 0.00 67 1005.6
20260509191558 64 225 1.0 12.0 0.00 0.00 0.00 66 1005.6
20260509191057 64 228 4.0 12.0 0.00 0.00 0.00 67 1005.8
20260509190559 63 117 3.0 11.0 0.00 0.00 0.00 70 1005.9
20260509190109 62 129 4.0 8.0 0.00 0.00 0.00 69 1006.0
20260509185555 61 240 1.0 8.0 0.00 0.00 0.00 71 1006.2
20260509185056 61 250 3.0 8.0 0.00 0.00 0.00 70 1006.2
20260509184610 61 124 2.0 6.0 0.00 0.00 0.00 73 1006.3
20260509184055 60 106 2.0 7.0 0.00 0.00 0.00 72 1006.3
20260509183555 60 118 1.0 7.0 0.00 0.00 0.00 73 1006.4
20260509183059 60 108 2.0 8.0 0.00 0.00 0.00 71 1006.3
20260509182554 60 146 1.0 8.0 0.00 0.00 0.00 73 1006.4
20260509182055 60 218 1.0 8.0 0.00 0.00 0.00 72 1006.4
20260509181556 60 130 2.0 8.0 0.00 0.00 0.00 71 1006.4
20260509181055 60 120 1.0 5.0 0.00 0.00 0.00 71 1006.4
20260509180559 60 149 3.0 5.0 0.00 0.00 0.00 72 1006.4
20260509175555 59 134 1.0 6.0 0.00 0.02 0.00 73 1006.5
20260509175056 59 148 1.0 6.0 0.00 0.02 0.00 73 1006.5
20260509174555 59 124 0.0 5.0 0.00 0.02 0.00 74 1006.5
20260509174056 59 215 1.0 5.0 0.00 0.02 0.00 73 1006.5
20260509173555 58 0 0.0 6.0 0.00 0.02 0.00 74 1006.5
20260509173100 58 210 2.0 6.0 0.00 0.02 0.00 74 1006.6
20260509172555 58 113 2.0 6.0 0.00 0.02 0.00 73 1006.5
20260509172056 58 0 1.0 4.0 0.00 0.02 0.00 75 1006.7
20260509171559 58 133 1.0 3.0 0.00 0.02 0.00 74 1006.6
20260509171055 58 90 1.0 4.0 0.00 0.02 0.00 75 1006.7
20260509170555 58 104 0.0 4.0 0.00 0.02 0.00 75 1006.8
20260509165557 58 105 1.0 3.0 0.00 0.02 0.00 76 1006.8
20260509165056 57 114 1.0 3.0 0.00 0.02 0.00 76 1006.9
20260509164554 57 133 0.0 3.0 0.00 0.02 0.00 77 1006.9
20260509164055 56 126 0.0 4.0 0.00 0.02 0.00 77 1007.0
20260509163556 56 0 1.0 4.0 0.00 0.02 0.00 77 1007.1
20260509163104 56 80 0.0 0.0 0.00 0.02 0.00 76 1007.1
20260509162558 56 0 0.0 2.0 0.00 0.02 0.00 76 1007.3
20260509162056 55 0 0.0 2.0 0.00 0.02 0.00 77 1007.4
20260509161557 55 0 1.0 2.0 0.00 0.02 0.00 76 1007.4
20260509161058 55 0 0.0 1.0 0.00 0.02 0.00 77 1007.4
20260509160553 55 0 0.0 2.0 0.00 0.02 0.00 77 1007.5
20260509160055 55 0 0.0 2.0 0.00 0.02 0.00 77 1007.6
20260509155557 55 0 0.0 3.0 0.00 0.02 0.00 75 1007.7
20260509155058 55 0 0.0 4.0 0.00 0.02 0.00 75 1007.6
20260509154608 56 143 0.0 4.0 0.00 0.02 0.00 74 1007.7
20260509154055 56 0 1.0 4.0 0.00 0.02 0.00 73 1007.7
20260509153552 56 131 0.0 4.0 0.00 0.02 0.00 74 1007.7
20260509153056 56 0 0.0 4.0 0.00 0.02 0.00 75 1007.7
20260509152559 56 0 1.0 4.0 0.00 0.02 0.00 74 1007.7
20260509152055 56 105 0.0 2.0 0.00 0.02 0.00 74 1007.9
20260509151556 56 78 0.0 3.0 0.00 0.02 0.00 75 1007.9
20260509151100 56 0 0.0 3.0 0.00 0.02 0.00 75 1007.9
20260509150555 56 0 0.0 4.0 0.00 0.02 0.00 75 1008.0
20260509150110 56 130 0.0 4.0 0.00 0.02 0.00 75 1008.0
20260509145555 55 248 0.0 3.0 0.00 0.04 0.00 75 1008.1
20260509145056 55 0 1.0 3.0 0.00 0.04 0.00 75 1008.1
20260509144602 55 0 1.0 3.0 0.00 0.04 0.00 76 1008.1
20260509144056 55 141 1.0 4.0 0.00 0.04 0.00 75 1008.2
20260509143556 55 125 0.0 4.0 0.00 0.04 0.00 74 1008.2
20260509143105 55 0 0.0 4.0 0.00 0.04 0.00 74 1008.3
20260509142555 54 0 0.0 2.0 0.00 0.04 0.00 75 1008.3
20260509142055 53 0 0.0 4.0 0.00 0.04 0.00 76 1008.3
20260509141558 53 0 0.0 4.0 0.00 0.04 0.00 76 1008.3
20260509141055 53 0 1.0 4.0 0.00 0.04 0.00 76 1008.4
20260509140552 53 0 0.0 2.0 0.00 0.04 0.00 77 1008.5
20260509140105 52 0 0.0 3.0 0.00 0.04 0.00 77 1008.5
20260509135552 52 0 1.0 3.0 0.00 0.05 0.00 78 1008.6
20260509135056 51 0 0.0 1.0 0.00 0.05 0.00 78 1008.5
20260509134555 51 0 0.0 2.0 0.00 0.05 0.00 78 1008.6
20260509134100 50 0 0.0 2.0 0.00 0.05 0.00 79 1008.5
20260509133555 50 0 0.0 3.0 0.00 0.05 0.00 79 1008.6
20260509133105 49 0 1.0 3.0 0.00 0.05 0.00 80 1008.6
20260509132553 49 0 0.0 3.0 0.00 0.05 0.00 80 1008.6
20260509132055 48 72 0.0 4.0 0.00 0.05 0.00 81 1008.7
20260509131556 48 117 1.0 4.0 0.00 0.05 0.00 81 1008.7
20260509131054 48 0 0.0 3.0 0.00 0.05 0.00 81 1008.9
20260509130556 47 121 0.0 2.0 0.00 0.05 0.00 82 1008.9
20260509130058 47 0 1.0 2.0 0.00 0.05 0.00 82 1009.0
20260509125555 46 0 0.0 2.0 0.00 0.05 0.00 83 1009.0
20260509125055 46 143 0.0 0.0 0.00 0.05 0.00 84 1008.9
20260509124644 45 0 0.0 0.0 0.00 0.05 0.00 85 1008.9
20260509124059 45 0 0.0 0.0 0.00 0.05 0.00 85 1009.0
20260509123559 45 0 0.0 0.0 0.00 0.05 0.00 86 1009.0
20260509123103 44 0 0.0 0.0 0.00 0.05 0.00 87 1008.9
20260509122555 44 0 0.0 0.0 0.00 0.05 0.00 87 1009.0
20260509122053 44 0 0.0 0.0 0.00 0.05 0.00 88 1009.1
20260509121602 43 0 0.0 0.0 0.00 0.05 0.00 89 1009.0
20260509121056 43 0 0.0 0.0 0.00 0.05 0.00 89 1009.1
20260509120559 43 0 0.0 0.0 0.00 0.05 0.00 90 1009.1
20260509115558 42 0 0.0 0.0 0.00 0.05 0.00 90 1009.1
20260509115055 42 0 0.0 0.0 0.00 0.05 0.00 91 1009.0
20260509114603 42 0 0.0 0.0 0.00 0.05 0.00 91 1009.1
20260509114054 42 0 0.0 0.0 0.00 0.05 0.00 91 1009.2
20260509113601 41 0 0.0 0.0 0.00 0.05 0.00 92 1009.2
20260509113059 41 0 0.0 0.0 0.00 0.05 0.00 92 1009.1
20260509112553 41 0 0.0 0.0 0.00 0.05 0.00 92 1009.1
20260509112055 40 0 0.0 0.0 0.00 0.05 0.00 92 1008.9
20260509111555 40 0 0.0 0.0 0.00 0.05 0.00 93 1008.9
20260509111059 40 0 0.0 0.0 0.00 0.05 0.00 93 1009.0
20260509110557 39 0 0.0 0.0 0.00 0.05 0.00 93 1009.0
20260509110057 39 0 0.0 0.0 0.00 0.05 0.00 93 1009.1
20260509105558 39 0 0.0 0.0 0.00 0.05 0.00 93 1009.2
20260509105055 38 0 0.0 0.0 0.00 0.05 0.00 93 1009.2
20260509104556 38 0 0.0 0.0 0.00 0.05 0.00 93 1009.2
20260509104056 38 0 0.0 0.0 0.00 0.05 0.00 93 1009.1
20260509103555 38 0 0.0 0.0 0.00 0.05 0.00 93 1009.1
20260509103054 37 0 0.0 0.0 0.00 0.05 0.00 92 1009.3
20260509102556 37 0 0.0 0.0 0.00 0.05 0.00 92 1009.2
20260509102057 37 0 0.0 0.0 0.00 0.05 0.00 92 1009.3
20260509101558 37 0 0.0 0.0 0.00 0.05 0.00 92 1009.3
20260509101053 37 0 0.0 0.0 0.00 0.05 0.00 92 1009.3
20260509100557 37 0 0.0 0.0 0.00 0.05 0.00 92 1009.1
20260509100057 37 0 0.0 0.0 0.00 0.05 0.00 92 1009.1
20260509095556 37 0 0.0 0.0 0.00 0.05 0.00 92 1009.1
20260509095056 36 0 0.0 0.0 0.00 0.05 0.00 92 1009.1
20260509094556 36 0 0.0 0.0 0.00 0.05 0.00 92 1009.0
20260509094056 36 0 0.0 0.0 0.00 0.05 0.00 92 1008.9
20260509093555 36 0 0.0 0.0 0.00 0.05 0.00 92 1008.9
20260509093056 36 0 0.0 0.0 0.00 0.05 0.00 92 1009.0
20260509092555 36 0 0.0 0.0 0.00 0.05 0.00 92 1008.9
20260509092058 36 0 0.0 0.0 0.00 0.05 0.00 92 1009.0
20260509091600 35 0 0.0 0.0 0.00 0.05 0.00 92 1009.0
20260509091056 35 0 0.0 0.0 0.00 0.05 0.00 92 1009.1
20260509090556 35 0 0.0 0.0 0.00 0.05 0.00 92 1009.1
20260509090106 35 0 0.0 0.0 0.00 0.05 0.00 92 1009.2
20260509085556 35 0 0.0 0.0 0.00 0.05 0.00 92 1009.2
20260509085059 35 0 0.0 0.0 0.00 0.05 0.00 92 1009.3
20260509084553 35 0 0.0 0.0 0.00 0.05 0.00 92 1009.5
20260509084055 35 0 0.0 0.0 0.00 0.05 0.00 91 1009.5
20260509083555 35 0 0.0 0.0 0.00 0.05 0.00 91 1009.6
20260509083058 35 0 0.0 0.0 0.00 0.05 0.00 91 1009.6
20260509082553 35 0 0.0 0.0 0.00 0.05 0.00 91 1009.7
20260509082053 35 0 0.0 0.0 0.00 0.05 0.00 91 1009.7
20260509081556 35 0 0.0 0.0 0.00 0.05 0.00 92 1009.7
20260509081056 35 0 0.0 0.0 0.00 0.05 0.00 92 1009.7
20260509080555 35 0 0.0 0.0 0.00 0.05 0.00 91 1009.7
20260509080110 35 0 0.0 0.0 0.00 0.05 0.00 91 1009.9
20260509075556 35 0 0.0 0.0 0.00 0.05 0.00 91 1009.8
20260509075057 35 0 0.0 0.0 0.00 0.05 0.00 91 1009.8
20260509074558 35 0 0.0 0.0 0.00 0.05 0.00 91 1009.8
20260509074056 35 0 0.0 0.0 0.00 0.05 0.00 91 1009.9
20260509073556 35 0 0.0 0.0 0.00 0.05 0.00 91 1009.9
20260509073107 35 0 0.0 0.0 0.00 0.05 0.00 91 1009.9
20260509072556 35 0 0.0 0.0 0.00 0.05 0.00 91 1009.9
20260509072056 35 0 0.0 0.0 0.00 0.05 0.00 91 1009.8
20260509071556 35 0 0.0 0.0 0.00 0.05 0.00 91 1009.9
20260509071054 34 0 0.0 0.0 0.00 0.05 0.00 91 1009.8
20260509070556 35 0 0.0 0.0 0.00 0.05 0.00 91 1009.9
20260509070059 34 0 0.0 0.0 0.00 0.05 0.00 91 1009.8
20260509065554 34 0 0.0 0.0 0.00 0.05 0.00 90 1009.8
20260509065055 35 0 0.0 0.0 0.00 0.05 0.00 90 1009.9
20260509064555 35 0 0.0 0.0 0.00 0.05 0.00 90 1009.9
20260509064053 35 0 0.0 0.0 0.00 0.05 0.00 90 1009.9
20260509063554 35 0 0.0 0.0 0.00 0.05 0.00 90 1009.9
20260509063114 35 0 0.0 0.0 0.00 0.05 0.00 90 1010.0
20260509062555 35 0 0.0 0.0 0.00 0.05 0.00 90 1010.1
20260509062054 35 0 0.0 0.0 0.00 0.05 0.00 90 1010.0
20260509061559 35 0 0.0 0.0 0.00 0.05 0.00 90 1010.2
20260509061056 35 0 0.0 0.0 0.00 0.05 0.00 90 1010.1
20260509060554 36 0 0.0 0.0 0.00 0.05 0.00 90 1010.2
20260509060057 36 0 0.0 0.0 0.00 0.05 0.00 90 1010.3
20260509055554 36 0 0.0 0.0 0.00 0.06 0.00 90 1010.4
20260509055053 35 0 0.0 0.0 0.00 0.06 0.00 90 1010.6
20260509054556 35 0 0.0 0.0 0.00 0.06 0.00 90 1010.5
20260509054053 35 0 0.0 0.0 0.00 0.06 0.00 89 1010.6
20260509053555 35 0 0.0 0.0 0.00 0.06 0.00 89 1010.6
20260509053055 35 0 0.0 0.0 0.00 0.06 0.00 89 1010.8
20260509052557 36 0 0.0 0.0 0.00 0.06 0.00 89 1010.7
20260509052054 36 0 0.0 0.0 0.00 0.06 0.00 89 1010.8
20260509051602 36 0 0.0 0.0 0.00 0.06 0.00 89 1010.8
20260509051056 36 0 0.0 0.0 0.00 0.06 0.00 89 1010.8
20260509050554 36 0 0.0 0.0 0.00 0.06 0.00 89 1010.7
20260509050101 36 0 0.0 0.0 0.00 0.06 0.00 89 1010.8
20260509045555 36 0 0.0 0.0 0.00 0.06 0.00 89 1010.9
20260509045054 36 0 0.0 0.0 0.00 0.06 0.00 88 1010.9
20260509044604 36 0 0.0 0.0 0.00 0.06 0.00 88 1011.0
20260509044055 36 0 0.0 0.0 0.00 0.06 0.00 88 1011.0
20260509043557 36 0 0.0 0.0 0.00 0.06 0.00 88 1011.1
20260509043103 36 0 0.0 0.0 0.00 0.06 0.00 88 1011.1
20260509042556 36 0 0.0 0.0 0.00 0.06 0.00 88 1011.1
20260509042056 37 0 0.0 0.0 0.00 0.06 0.00 88 1011.2
20260509041556 37 0 0.0 0.0 0.00 0.06 0.00 88 1011.2
20260509041057 37 0 0.0 0.0 0.00 0.06 0.00 87 1011.2
20260509040558 37 0 0.0 0.0 0.00 0.06 0.00 87 1011.2
20260509040056 37 0 0.0 0.0 0.00 0.06 0.00 87 1011.3
20260509035555 37 0 0.0 0.0 0.00 0.06 0.06 87 1011.2
20260509035057 37 0 0.0 0.0 0.00 0.06 0.06 87 1011.2
20260509034605 37 0 0.0 0.0 0.00 0.06 0.06 86 1011.3
20260509034056 37 0 0.0 0.0 0.00 0.06 0.06 86 1011.2
20260509033556 37 0 0.0 0.0 0.00 0.06 0.06 86 1011.2
20260509033107 38 0 0.0 0.0 0.00 0.06 0.06 86 1011.2
20260509032556 38 0 0.0 0.0 0.00 0.06 0.06 86 1011.2
20260509032059 38 0 0.0 0.0 0.00 0.06 0.06 86 1011.2
20260509031555 38 0 0.0 0.0 0.00 0.06 0.06 86 1011.2
20260509031053 38 0 0.0 0.0 0.00 0.06 0.06 85 1011.2
20260509030554 38 0 0.0 0.0 0.00 0.06 0.06 85 1011.2
20260509030058 38 0 0.0 0.0 0.00 0.06 0.06 85 1011.2
20260509025556 38 0 0.0 0.0 0.00 0.06 0.06 85 1011.3
20260509025055 38 0 0.0 0.0 0.00 0.06 0.06 84 1011.3
20260509024603 38 0 0.0 0.0 0.00 0.06 0.06 83 1011.3
20260509024053 39 0 0.0 0.0 0.00 0.06 0.06 83 1011.3
20260509023555 39 0 0.0 0.0 0.00 0.06 0.06 83 1011.3
20260509023056 39 0 0.0 0.0 0.00 0.06 0.06 83 1011.4
20260509022555 39 0 0.0 0.0 0.00 0.06 0.06 82 1011.4
20260509022055 39 0 0.0 0.0 0.00 0.06 0.06 82 1011.4
20260509021555 40 0 0.0 0.0 0.00 0.06 0.06 82 1011.5
20260509021055 40 0 0.0 0.0 0.00 0.06 0.06 82 1011.5
20260509020556 40 0 0.0 0.0 0.00 0.06 0.06 81 1011.5
20260509020055 41 0 0.0 0.0 0.00 0.06 0.06 81 1011.5
20260509015555 41 0 0.0 0.0 0.00 0.06 0.06 80 1011.5
20260509015056 41 0 0.0 0.0 0.00 0.06 0.06 80 1011.4
20260509014554 41 0 0.0 0.0 0.00 0.06 0.06 80 1011.4
20260509014054 41 0 0.0 0.0 0.00 0.06 0.06 79 1011.4
20260509013554 42 0 0.0 0.0 0.00 0.06 0.06 78 1011.3
20260509013103 42 0 0.0 0.0 0.00 0.06 0.06 78 1011.2
20260509012553 42 0 0.0 0.0 0.00 0.06 0.06 77 1011.2
20260509012054 43 0 0.0 0.0 0.00 0.06 0.06 76 1011.2
20260509011603 43 0 0.0 0.0 0.00 0.06 0.06 75 1011.1
20260509011054 44 0 0.0 0.0 0.00 0.06 0.06 75 1011.1
20260509010555 44 0 0.0 0.0 0.00 0.06 0.06 74 1011.0
20260509010057 44 0 0.0 0.0 0.00 0.06 0.06 74 1010.8
20260509005554 44 0 0.0 0.0 0.00 0.06 0.06 72 1010.8
20260509005058 45 0 0.0 0.0 0.00 0.06 0.06 70 1010.8
20260509004600 46 0 0.0 0.0 0.00 0.06 0.06 70 1010.7
20260509004058 46 0 0.0 0.0 0.00 0.06 0.06 69 1010.6
20260509003554 47 0 0.0 0.0 0.00 0.06 0.06 67 1010.6
20260509003055 48 0 0.0 0.0 0.00 0.06 0.06 66 1010.5
20260509002556 49 0 0.0 0.0 0.00 0.06 0.06 65 1010.5
20260509002056 49 0 0.0 0.0 0.00 0.06 0.06 64 1010.4
20260509001556 50 0 0.0 0.0 0.00 0.06 0.06 62 1010.5
20260509001053 51 0 0.0 0.0 0.00 0.06 0.06 61 1010.4
20260509000556 52 0 0.0 0.0 0.00 0.06 0.06 60 1010.3
20260509000057 53 0 0.0 0.0 0.00 0.06 0.06 57 1010.3
20260508235554 54 0 0.0 0.0 0.00 0.06 0.06 51 1010.3
20260508235054 55 0 0.0 0.0 0.00 0.06 0.06 48 1010.2
20260508234556 56 0 0.0 0.0 0.00 0.06 0.06 46 1010.1
20260508234057 57 0 0.0 0.0 0.00 0.06 0.06 45 1010.2
20260508233554 58 0 0.0 0.0 0.00 0.06 0.06 44 1010.2
20260508233054 59 0 0.0 0.0 0.00 0.06 0.06 44 1010.2
20260508232554 59 0 0.0 0.0 0.00 0.06 0.06 48 1010.2
20260508232053 59 0 0.0 0.0 0.00 0.06 0.06 47 1010.3
20260508231558 58 0 0.0 2.0 0.00 0.06 0.06 44 1010.2
20260508231054 58 0 0.0 2.0 0.00 0.06 0.06 41 1010.2
20260508230555 59 274 0.0 0.0 0.00 0.06 0.06 40 1010.1
20260508230055 58 0 0.0 0.0 0.00 0.06 0.06 43 1010.2
20260508225555 58 0 0.0 2.0 0.00 0.06 0.06 41 1010.1
20260508225055 58 0 0.0 2.0 0.00 0.06 0.06 42 1010.2
20260508224612 58 241 0.0 2.0 0.00 0.06 0.06 42 1010.2
20260508224054 58 0 0.0 3.0 0.00 0.06 0.06 46 1010.2
20260508223554 57 0 0.0 3.0 0.00 0.06 0.06 44 1010.1
20260508223055 57 0 1.0 3.0 0.00 0.06 0.06 44 1010.3